Regional Weather Roundup
Issued by NWS

Home | Current Version | Previous Version | Graphics & Text | Print | Product List | Glossary On
Versions: 1 2 3 4 5 6 7 8 9 10 11 12 13 14 15 16 17 18 19 20 21 22 23 24 25 26 27 28 29 30 31 32 33 34 35 36 37 38 39 40 41 42 43 44 45 46 47 48 49 50
803
ASUS43 KDMX 012103
RWRIA

WEATHER ROUNDUP FOR IOWA
NATIONAL WEATHER SERVICE DES MOINES IA
400 PM CDT SUN MAY 01 2016

NOTE: "FAIR" INDICATES FEW OR NO CLOUDS BELOW 12,000 FEET WITH NO
SIGNIFICANT WEATHER AND/OR OBSTRUCTIONS TO VISIBILITY.

* - THESE STATIONS ARE NOT NWS STATIONS...THUS NOT UNDER NWS
QUALITY CONTROL.  THEY ALSO DO NOT REPORT WEATHER SUCH
AS PRECIPITATION OR FOG.

IAZ001>003-012>014-020>022-031>034-043>046-012200-
   NORTHWEST IOWA

CITY           SKY/WX    TMP DP  RH WIND       PRES   REMARKS
CARROLL *      PTSUNNY   46  45  93 N15       30.10S
CHEROKEE *     LGT RAIN  52  46  82 N9        30.13S
DENISON *      PTSUNNY   48  43  81 N12G18    30.10S
LE MARS *      CLOUDY    54  41  62 N14       30.15F
ORANGE CITY *  CLOUDY    54  41  62 N10       30.14F
SHELDON *      CLOUDY    54  43  66 N18       30.13S
SIOUX CITY     CLOUDY    55  41  59 N13       30.15S
SPENCER        CLOUDY    54  39  57 NE14      30.12S
STORM LAKE *   MOSUNNY   48  45  87 NE12      30.12S
$$

IAZ055>058-069>071-079>083-090>094-012200-
   SOUTHWEST IOWA

CITY           SKY/WX    TMP DP  RH WIND       PRES   REMARKS
ATLANTIC *     CLOUDY    48  43  81 N16       30.09S
AUDUBON *      DRIZZLE   46  43  87 N17G23    30.10S
CLARINDA *       N/A    N/A N/A N/A MISG        N/A
COUNCIL BLFS *   N/A     48  43  81 N17G23    30.10F
CRESTON *      CLOUDY    46  45  93 N13G18    30.07R
HARLAN  *      CLOUDY    48  43  81 N17       30.13S
LAMONI         CLOUDY    48  45  89 N10       30.03S
RED OAK *      CLOUDY   126 N/A N/A N15G28    30.09S
SHENANDOAH *   CLOUDY    50  45  81 N21       30.08F
$$

IAZ047>049-059>061-072>074-084-012200-
   CENTRAL IOWA

CITY           SKY/WX    TMP DP  RH WIND       PRES   REMARKS
AMES           LGT RAIN  49  45  86 N10       30.07S
ANKENY *       CLOUDY    48  48 100 N12       30.06R
BOONE *        LGT RAIN  46  45  93 NE15G21   30.07R
CHARITON *     LGT RAIN  48  46  93 N9        30.04R
DES MOINES     LGT RAIN  48  44  86 N7        30.06S
GRINNELL*      RAIN      46  46 100 N6        30.04S
KNOXVILLE *    LGT RAIN  48  45  87 N9        30.02R
MARSHALLTOWN   LGT RAIN  47  45  93 N14       30.05R FOG
NEWTON *       CLOUDY    46  46 100 N9        30.04S
PELLA *        RAIN      48  46  93 N8        30.04R
$$

IAZ004>006-015-016-023>025-035-036-012200-
   NORTH CENTRAL IOWA

CITY           SKY/WX    TMP DP  RH WIND       PRES   REMARKS
ALGONA *       CLOUDY    54  41  62 NE15G22   30.10S
CLARION *      LGT RAIN  50  45  81 NE12      30.09R
ESTHERVILLE    CLOUDY    54  41  61 N16       30.11R
FORT DODGE *   CLOUDY    46  43  87 N7        30.10S
MASON CITY     CLOUDY    53  43  68 N10       30.08S
FOREST CITY *  PTSUNNY   54  39  58 N12       30.08S
WEBSTER CITY * LGT RAIN  46  46 100 N9        30.08R
IOWA FALLS *   DRIZZLE   48  46  93 N7        30.08S
$$

IAZ007>011-017>019-026>030-037>042-050>054-066-012200-
   NORTHEAST IOWA

CITY           SKY/WX    TMP DP  RH WIND       PRES   REMARKS
CEDAR RAPIDS   RAIN      48  48 100 NE5       30.01R FOG
CHARLES CITY * LGT RAIN  52  45  76 NE9       30.06R
CLINTON *      RAIN      49  47  93 E9        30.01S
DECORAH *      LGT RAIN  50  43  76 NE7       30.04S
DUBUQUE        CLOUDY    49  45  86 NE7       30.01F
MONTICELLO *   LGT RAIN  50  46  87 NE6       30.02R
OELWEIN *      LGT RAIN  48  46  93 NE10      30.05S
WATERLOO       LGT RAIN  48  45  89 N6        30.05S FOG
$$

IAZ064-065-067-068-078-012200-
   EAST CENTRAL IOWA

CITY           SKY/WX    TMP DP  RH WIND       PRES   REMARKS
DAVENPORT      RAIN      49  47  93 NE10      29.99F FOG
IOWA CITY      LGT RAIN  49  47  93 N8        30.02S
MT. PLEASANT * RAIN      51  51 100 NE7       29.99R
MUSCATINE *    LGT RAIN  50  48  93 NE8       29.99F
QUAD CITIES    LGT RAIN  51  46  83 NE10      29.97F
$$

IAZ062-063-075>077-085>089-095>099-012200-
   SOUTHEAST IOWA

CITY           SKY/WX    TMP DP  RH WIND       PRES   REMARKS
BURLINGTON     FOG       50  50 100 NE10      29.96F VSB 1
FAIRFIELD *    HVY RAIN  48  46  93 N12       30.00S
FORT MADISON * CLOUDY    50  50 100 N5        29.98R FOG
KEOKUK *       CLOUDY    54  50  87 NW5       29.97R
OSKALOOSA *    LGT RAIN  46  46  98 N8        30.02S
OTTUMWA        LGT RAIN  48  45  89 N10       30.01S
WASHINGTON *   CLOUDY    48  48 100 N9        30.02R
$$

ABBREVIATIONS USED IN REMARKS
   TC - TEMPERATURES IN CELSIUS
  WCI - WIND CHILL INDEX
   HX - HEAT INDEX
  VSB - VISIBILITY
$$





USA.gov is the U.S. government's official web portal to all federal, state and local government web resources and services.